[[{"header":{"parameterUnit":"m.s-1","parameterCategory":1,"la1":30.2991,"la2":30.254,"lo1":-89.0895,"lo2":-89.0444,"dy":0.0017,"dx":0.0017,"nx":28,"ny":28,"refTime":"2025-03-23T21:00:00:Z","depth":0,"parameterNumber":2,"parameterNumberName":"U-component_of_WINDS"},"data":[0,0,0,0,0,0,0,0,0,0,0,0,0,0,0,0,0,0,0,0,0,0,0,0,0,0,0,0,0,0,0,0,0,0,0,0,0,0,0,0,0,0,0,0,0,0,0,0,0,0,0,0,0,0,0,0,0,0,-2.597,-2.5971,0,-2.6039,-2.6039,-2.604,-2.6056,-2.6055,-2.6055,-2.6054,-2.6126,-2.6128,-2.613,0,0,0,0,0,0,0,0,0,0,0,0,0,-2.5856,-2.5858,-2.597,-2.5971,-2.5972,-2.6038,-2.6039,-2.604,-2.6056,-2.6055,-2.6054,-2.6054,-2.6125,-2.6128,-2.6131,0,0,0,0,0,0,0,0,0,0,0,0,0,-2.5913,-2.5858,-2.597,-2.5987,-2.599,-2.6038,-2.6039,-2.6041,-2.6056,-2.6055,-2.6054,-2.6054,-2.6124,-2.6128,-2.6131,-2.6168,0,0,-2.6142,-2.6143,0,0,0,0,0,0,0,0,-2.591,-2.5917,-2.5984,-2.5986,-2.5989,-2.6038,-2.6025,-2.6083,-2.6056,-2.6031,-2.6054,-2.6053,-2.6097,-2.6103,-2.6117,-2.6171,-2.6174,-2.6142,-2.6144,-2.6146,-2.6147,0,0,0,0,0,0,0,-2.5906,-2.5914,-2.5997,-2.5985,-2.5988,-2.5993,-2.6,-2.6036,-2.6067,-2.6033,-2.6034,-2.6042,-2.6098,-2.6114,-2.6119,-2.6175,-2.6142,-2.6145,-2.6147,-2.6149,-2.6264,-2.6265,0,0,0,0,0,0,-2.5898,-2.5911,-2.5995,-2.5999,-2.5947,-2.5996,-2.6004,-2.6023,-2.6067,-2.6073,-2.6042,-2.6042,-2.6108,-2.6115,-2.6122,-2.6168,-2.6146,-2.6149,-2.6151,-2.6263,-2.6264,-2.6265,0,0,0,0,0,0,-2.5896,-2.5906,-2.5992,-2.5955,-2.5967,-2.5998,-2.602,-2.6025,-2.604,-2.6074,-2.608,-2.6052,-2.6108,-2.6117,-2.6156,-2.6171,-2.6151,-2.6154,-2.6262,-2.6263,-2.6265,-2.626,0,0,0,0,0,0,-2.5892,-2.5905,-2.5918,-2.5956,-2.5969,-2.6025,-2.6021,-2.6026,-2.6046,-2.6046,-2.6085,-2.6091,-2.6108,-2.6151,-2.616,-2.6175,-2.6157,-2.6261,-2.6263,-2.6264,-2.6259,-2.6261,-2.6263,0,0,0,0,0,-2.5888,-2.5914,-2.5918,-2.5928,-2.5986,-2.6025,-2.6033,-2.6052,-2.6047,-2.6061,-2.6084,-2.609,-2.6168,-2.6155,-2.6165,-2.6182,-2.626,-2.6262,-2.6264,-2.6258,-2.6261,-2.6263,0,0,0,0,0,0,-2.5877,-2.5919,-2.5924,-2.5963,-2.599,-2.6028,-2.6046,-2.6054,-2.6083,-2.6083,-2.6106,-2.6114,-2.6153,-2.6172,-2.6156,-2.622,-2.6214,-2.6218,-2.6206,-2.6209,-2.6211,-2.6205,-2.616,0,0,0,0,0,-2.5879,-2.5907,-2.5942,-2.5973,-2.5987,-2.6014,-2.6032,-2.6044,-2.6074,-2.6086,-2.6111,-2.614,-2.6171,-2.6191,-2.6222,-2.6263,-2.6272,-2.6279,-2.6281,-2.6283,-2.6286,-2.631,-2.6313,-2.6272,-2.6272,-2.6272,0,0,-2.5883,-2.591,-2.5926,-2.5971,-2.5994,-2.6023,-2.6024,-2.6054,-2.6076,-2.6091,-2.6129,-2.6149,-2.6183,-2.6224,-2.6243,-2.624,-2.63,-2.6285,-2.6286,-2.6288,-2.6312,-2.6316,-2.6319,-2.6273,-2.6273,-2.6273,0,0,-2.5906,-2.5928,-2.5956,-2.598,-2.6014,-2.6033,-2.604,-2.6077,-2.609,-2.613,-2.6141,-2.6169,-2.6222,-2.6246,-2.6265,-2.63,-2.6307,-2.631,-2.6319,-2.6342,-2.6345,-2.6348,-2.6361,-2.6365,-2.6313,-2.6313,-2.6313,0,-2.5906,-2.595,-2.597,-2.6,-2.6021,-2.6036,-2.6065,-2.6087,-2.613,-2.6144,-2.6141,-2.6209,-2.6234,-2.628,-2.6289,-2.6304,-2.6313,-2.6304,-2.6343,-2.6346,-2.6349,-2.6361,-2.6366,-2.6313,-2.6313,-2.6313,-2.6313,0,-2.595,-2.598,-2.5999,-2.604,-2.6062,-2.6092,-2.6118,-2.6139,-2.615,-2.617,-2.621,-2.624,-2.6278,-2.629,-2.6301,-2.6339,-2.6337,-2.6338,-2.6332,-2.6353,-2.6365,-2.6369,-2.6313,-2.6313,-2.6313,-2.6313,0,0,-2.5964,-2.6018,-2.6024,-2.6043,-2.6084,-2.6108,-2.614,-2.6176,-2.6194,-2.6224,-2.6251,-2.6297,-2.6299,-2.6321,-2.6336,-2.6356,-2.6382,-2.6356,-2.6357,-2.6359,-2.6426,-2.6424,-2.6429,-2.6388,-2.6389,-2.639,-2.6423,0,-2.5991,-2.6046,-2.6067,-2.6112,-2.6141,-2.6157,-2.6185,-2.6213,-2.6233,-2.6261,-2.6284,-2.6315,-2.6316,-2.633,-2.6351,-2.6374,-2.6396,-2.6373,-2.6414,-2.6415,-2.6403,-2.6435,-2.6432,-2.6462,-2.6428,-2.6429,-2.6429,0,-2.6029,-2.606,-2.6108,-2.6146,-2.6159,-2.6183,-2.6219,-2.6246,-2.6279,-2.6292,-2.6318,-2.6332,-2.6367,-2.636,-2.6409,-2.6393,-2.6411,-2.6426,-2.6428,-2.6431,-2.6422,-2.6438,-2.6472,-2.6476,-2.6437,-2.6436,-2.6436,0,-2.6035,-2.6088,-2.6124,-2.614,-2.6186,-2.6202,-2.6222,-2.6255,-2.6276,-2.6308,-2.6323,-2.6359,-2.6378,-2.6406,-2.643,-2.6423,-2.6477,-2.6472,-2.6489,-2.6489,-2.6498,-2.6497,-2.6534,-2.6512,-2.6512,-2.6512,-2.6512,0,-2.6062,-2.6091,-2.6127,-2.6149,-2.6183,-2.6207,-2.624,-2.6261,-2.6291,-2.6318,-2.6335,-2.636,-2.6391,-2.6421,-2.644,-2.6478,-2.6487,-2.6499,-2.6503,-2.6496,-2.6495,-2.6508,-2.6506,-2.6513,-2.6513,-2.6513,-2.6513,0,-2.6073,-2.6098,-2.6139,-2.6179,-2.619,-2.6213,-2.6248,-2.627,-2.6292,-2.6326,-2.6336,-2.637,-2.6406,-2.6433,-2.648,-2.6493,-2.6533,-2.6539,-2.6522,-2.6524,-2.6539,-2.6537,-2.6585,-2.6593,-2.6566,-2.6566,-2.6566,0,-2.6088,-2.611,-2.6153,-2.6173,-2.6192,-2.6223,-2.6245,-2.6271,-2.6293,-2.6334,-2.6352,-2.639,-2.6421,-2.6479,-2.6508,-2.6544,-2.655,-2.6565,-2.6556,-2.6549,-2.655,-2.6548,-2.655,-2.6565,-2.6565,-2.6565,-2.6566,0,-2.6112,-2.6124,-2.6154,-2.6189,-2.6215,-2.6244,-2.6273,-2.6289,-2.632,-2.6345,-2.6382,-2.6406,-2.6455,-2.6492,-2.6532,-2.6554,-2.6565,-2.6569,-2.6574,-2.6567,-2.6556,-2.6562,-2.6524,-2.6567,-2.6567,-2.6567,-2.6567,-2.6567,-2.6125,-2.6146,-2.618,-2.6213,-2.6238,-2.6266,-2.629,-2.6314,-2.6345,-2.6386,-2.64,-2.6439,-2.6474,-2.6529,-2.6551,-2.6583,-2.6583,-2.6591,-2.6593,-2.6594,-2.6594,-2.6552,-2.659,-2.659,-2.659,-2.659,-2.659,0,-2.6149,-2.6172,-2.6203,-2.6244,-2.6271,-2.6279,-2.6313,-2.6335,-2.6369,-2.64,-2.6431,-2.6474,-2.6511,-2.6544,-2.6583,-2.6602,-2.6608,-2.6611,-2.6609,-2.6614,-2.6592,-2.6583,-2.6605,-2.6605,-2.6605,-2.6605,-2.6605,-2.6605,-2.6165,-2.6201,-2.6218,-2.6267,-2.6291,-2.6328,-2.6346,-2.6372,-2.6398,-2.6445,-2.6476,-2.6497,-2.653,-2.6571,-2.6606,-2.6615,-2.6628,-2.6629,-2.6639,-2.6618,-2.6616,-2.6614,-2.6605,-2.6632,-2.6632,-2.6659,-2.6659,-2.666]},{"header":{"parameterUnit":"m.s-1","parameterCategory":1,"la1":30.2991,"la2":30.254,"lo1":-89.0895,"lo2":-89.0444,"dy":0.0017,"dx":0.0017,"nx":28,"ny":28,"refTime":"2025-03-23T21:00:00:Z","depth":0,"parameterNumber":3,"parameterNumberName":"V-component_of_WINDS"},"data":[0,0,0,0,0,0,0,0,0,0,0,0,0,0,0,0,0,0,0,0,0,0,0,0,0,0,0,0,0,0,0,0,0,0,0,0,0,0,0,0,0,0,0,0,0,0,0,0,0,0,0,0,0,0,0,0,0,0,5.6027,5.6026,0,5.5936,5.5935,5.5933,5.5887,5.5887,5.5887,5.5887,5.5791,5.5788,5.5786,0,0,0,0,0,0,0,0,0,0,0,0,0,5.6162,5.616,5.6027,5.6026,5.6025,5.5936,5.5934,5.5933,5.5887,5.5887,5.5887,5.5887,5.5791,5.5788,5.5785,0,0,0,0,0,0,0,0,0,0,0,0,0,5.609,5.6159,5.6027,5.5991,5.5987,5.5936,5.5934,5.5933,5.5887,5.5887,5.5887,5.5887,5.5792,5.5789,5.5785,5.5762,0,0,5.5773,5.5771,0,0,0,0,0,0,0,0,5.6094,5.6085,5.5998,5.5994,5.5989,5.5923,5.5947,5.5875,5.5887,5.5925,5.5887,5.5887,5.5834,5.5827,5.581,5.5757,5.5753,5.5773,5.577,5.5769,5.5768,0,0,0,0,0,0,0,5.6099,5.6089,5.5991,5.5997,5.5991,5.598,5.5969,5.5933,5.5881,5.5922,5.5918,5.5908,5.5832,5.5814,5.5807,5.5752,5.5773,5.5769,5.5767,5.5766,5.5678,5.5678,0,0,0,0,0,0,5.6111,5.6094,5.5994,5.5988,5.6043,5.5977,5.5966,5.5944,5.5881,5.5872,5.5908,5.5906,5.582,5.5812,5.5804,5.5774,5.5769,5.5765,5.5763,5.5678,5.5678,5.5678,0,0,0,0,0,0,5.6114,5.6102,5.5997,5.604,5.6026,5.5975,5.5951,5.5942,5.5924,5.5871,5.5861,5.5899,5.582,5.5809,5.5773,5.577,5.5764,5.576,5.5678,5.5678,5.5678,5.5714,0,0,0,0,0,0,5.6118,5.6103,5.6094,5.604,5.6024,5.5969,5.5951,5.5941,5.5918,5.5914,5.586,5.5851,5.5819,5.5779,5.577,5.5765,5.5757,5.5678,5.5678,5.5678,5.5713,5.5715,5.5717,0,0,0,0,0,5.6123,5.6106,5.6094,5.6082,5.6011,5.5969,5.5959,5.5924,5.5918,5.5908,5.5875,5.5853,5.5772,5.5776,5.5765,5.5759,5.5678,5.5678,5.5678,5.5712,5.5715,5.5717,0,0,0,0,0,0,5.6159,5.6098,5.6084,5.605,5.6015,5.5961,5.5947,5.5928,5.5893,5.5891,5.5848,5.5836,5.5805,5.5778,5.5783,5.5734,5.5723,5.5721,5.5753,5.5755,5.5757,5.5764,5.5754,0,0,0,0,0,5.6164,5.6135,5.6083,5.6058,5.6042,5.5998,5.5978,5.5954,5.5916,5.5901,5.5865,5.5828,5.5795,5.5773,5.5739,5.5709,5.5698,5.57,5.5702,5.5704,5.5703,5.5687,5.5688,5.5678,5.5678,5.5678,0,0,5.6172,5.6135,5.6119,5.6065,5.6035,5.6007,5.5986,5.5956,5.5934,5.5896,5.5861,5.5833,5.5789,5.5757,5.5741,5.5734,5.5703,5.5704,5.5706,5.5703,5.5687,5.5688,5.5689,5.5678,5.5678,5.5678,0,0,5.6172,5.6142,5.6118,5.609,5.6046,5.6018,5.6013,5.5962,5.5943,5.5907,5.5879,5.5853,5.5796,5.5767,5.5744,5.5738,5.5717,5.5728,5.574,5.5725,5.5726,5.5726,5.5726,5.5726,5.5727,5.5727,5.5727,0,5.6188,5.6144,5.6109,5.6082,5.6059,5.6025,5.6002,5.5976,5.5923,5.5908,5.5902,5.5832,5.58,5.5761,5.576,5.5743,5.5736,5.5734,5.5729,5.5729,5.5729,5.5728,5.5727,5.5729,5.5729,5.5728,5.5728,0,5.6166,5.6137,5.6123,5.6076,5.6052,5.6026,5.5988,5.5968,5.5947,5.592,5.5885,5.5846,5.5805,5.5794,5.5772,5.5754,5.5751,5.5737,5.5725,5.5732,5.573,5.573,5.5731,5.5731,5.573,5.573,0,0,5.6185,5.612,5.6116,5.6095,5.6046,5.6022,5.5997,5.5959,5.5943,5.5908,5.5886,5.5841,5.5829,5.5804,5.5779,5.5766,5.5766,5.5754,5.5752,5.5759,5.5745,5.5757,5.5757,5.5753,5.5752,5.5752,5.575,0,5.6179,5.6132,5.6101,5.6067,5.604,5.6009,5.5987,5.5955,5.593,5.5903,5.5875,5.5844,5.5829,5.5815,5.5801,5.5769,5.5763,5.5769,5.5732,5.5731,5.5745,5.5755,5.5766,5.5766,5.5749,5.5748,5.5748,0,5.6165,5.6134,5.6098,5.6055,5.6042,5.6023,5.5987,5.5962,5.5926,5.5908,5.5883,5.5858,5.5831,5.5822,5.5784,5.5789,5.5772,5.5755,5.5754,5.5749,5.574,5.5752,5.5764,5.5765,5.5747,5.5747,5.5747,0,5.6184,5.6133,5.6105,5.6088,5.6037,5.6024,5.6002,5.5966,5.5946,5.5915,5.5902,5.5867,5.5848,5.5822,5.5789,5.5785,5.5756,5.5743,5.5741,5.5742,5.5735,5.5736,5.5746,5.5724,5.5724,5.5724,5.5724,0,5.6181,5.616,5.6114,5.6097,5.6073,5.6038,5.6016,5.5991,5.596,5.5938,5.5909,5.5889,5.5847,5.5822,5.5796,5.577,5.5761,5.5747,5.574,5.575,5.5752,5.5738,5.5738,5.5724,5.5724,5.5724,5.5724,0,5.6198,5.6165,5.6134,5.6089,5.6077,5.6062,5.6024,5.6007,5.5981,5.5954,5.5945,5.5905,5.5874,5.584,5.5797,5.578,5.5756,5.5746,5.5769,5.5765,5.5765,5.5766,5.5767,5.5766,5.5744,5.5744,5.5745,0,5.6198,5.6181,5.6136,5.612,5.61,5.6074,5.6054,5.602,5.6001,5.5961,5.5949,5.5917,5.5889,5.5843,5.5809,5.5777,5.5767,5.5769,5.5761,5.5772,5.5768,5.577,5.5769,5.5771,5.5772,5.5772,5.5772,0,5.6202,5.6188,5.6161,5.613,5.6108,5.6082,5.6054,5.6042,5.6003,5.5983,5.5953,5.5932,5.5891,5.5859,5.5824,5.5801,5.5781,5.5776,5.5773,5.5783,5.5798,5.5791,5.5776,5.5775,5.5775,5.5775,5.5775,5.5774,5.6211,5.6196,5.6163,5.6135,5.6111,5.6087,5.607,5.6043,5.6018,5.5982,5.5964,5.5935,5.5902,5.5852,5.5831,5.5808,5.58,5.5797,5.5796,5.5796,5.58,5.5802,5.5801,5.5801,5.58,5.58,5.58,0,5.6214,5.6193,5.6168,5.6131,5.611,5.6095,5.6064,5.6047,5.6022,5.5994,5.5968,5.5935,5.5906,5.5872,5.5841,5.5829,5.5819,5.5822,5.5822,5.5818,5.5807,5.5812,5.5831,5.5831,5.5831,5.5831,5.5831,5.5831,5.6214,5.6189,5.6172,5.6136,5.6114,5.6086,5.607,5.6048,5.6026,5.5991,5.5967,5.5946,5.5915,5.5882,5.5855,5.5846,5.5837,5.5843,5.5831,5.5821,5.5818,5.5816,5.5821,5.5841,5.5841,5.5844,5.5844,5.5844]}]]